EDW187 LSZH-LICJ

Flight info

Callsign EDW187
Flight time N/A
Altitude 36000
Route VEBIT T53 GERSA DCT SOSON DCT ODINA DCT BAKRO/N0422F370 DCT GIANO
Aircraft A20N/M-SDE2E3FGHIRWXY/LB1

Departure

Time 2026-02-17 09:40
Airport Zürich Airport (LSZH)

Arrival

Time N/A
Airport Falcone–Borsellino Airport (LICJ)
Time Latitude Longitude Altitude Speed Heading
2026-02-17 09:19 47.45429 8.55746 1404 ft 0 kts 186°
2026-02-17 09:27 47.45435 8.55747 1409 ft 4 kts 186°
2026-02-17 09:27 47.45461 8.55753 1406 ft 4 kts 191°
2026-02-17 09:28 47.45484 8.55761 1401 ft 3 kts 202°
2026-02-17 09:28 47.45497 8.55772 1404 ft 2 kts 228°
2026-02-17 09:28 47.45503 8.55785 1406 ft 2 kts 258°
2026-02-17 09:28 47.45505 8.55801 1405 ft 2 kts 272°
2026-02-17 09:29 47.45504 8.55817 1402 ft 2 kts 276°
2026-02-17 09:29 47.45504 8.55822 1403 ft 0 kts 277°
2026-02-17 09:31 47.45508 8.55763 1398 ft 6 kts 276°
2026-02-17 09:31 47.45512 8.55704 1398 ft 6 kts 275°
2026-02-17 09:31 47.45515 8.55649 1396 ft 5 kts 275°
2026-02-17 09:31 47.45518 8.55598 1405 ft 5 kts 276°
2026-02-17 09:32 47.45523 8.55520 1396 ft 10 kts 276°
2026-02-17 09:32 47.45531 8.55408 1404 ft 12 kts 275°
2026-02-17 09:32 47.45541 8.55289 1399 ft 11 kts 286°
2026-02-17 09:32 47.45597 8.55233 1399 ft 10 kts 334°
2026-02-17 09:33 47.45668 8.55189 1400 ft 12 kts 336°
2026-02-17 09:33 47.45750 8.55133 1402 ft 14 kts 334°
2026-02-17 09:33 47.45840 8.55063 1400 ft 15 kts 334°
2026-02-17 09:33 47.45943 8.54991 1399 ft 17 kts 335°
2026-02-17 09:34 47.46048 8.54919 1399 ft 17 kts 335°
2026-02-17 09:34 47.46164 8.54840 1395 ft 20 kts 335°
2026-02-17 09:34 47.46293 8.54752 1395 ft 22 kts 335°
2026-02-17 09:35 47.46609 8.54532 1401 ft 28 kts 335°
2026-02-17 09:35 47.46793 8.54419 1394 ft 30 kts 342°
2026-02-17 09:35 47.46979 8.54292 1403 ft 30 kts 335°
2026-02-17 09:35 47.47169 8.54163 1405 ft 30 kts 335°
2026-02-17 09:36 47.47368 8.54026 1403 ft 33 kts 334°
2026-02-17 09:36 47.47542 8.53905 1404 ft 20 kts 335°
2026-02-17 09:36 47.47610 8.53808 1399 ft 14 kts 284°
2026-02-17 09:36 47.47611 8.53769 1398 ft 0 kts 264°
2026-02-17 09:37 47.47611 8.53766 1398 ft 1 kts 263°
2026-02-17 09:37 47.47606 8.53740 1400 ft 4 kts 251°
2026-02-17 09:37 47.47592 8.53694 1401 ft 6 kts 245°
2026-02-17 09:38 47.47571 8.53628 1403 ft 9 kts 244°
2026-02-17 09:38 47.47514 8.53623 1401 ft 11 kts 145°
2026-02-17 09:38 47.47470 8.53660 1397 ft 0 kts 154°
2026-02-17 09:39 47.47463 8.53665 1396 ft 4 kts 154°
2026-02-17 09:39 47.47411 8.53703 1399 ft 20 kts 154°
2026-02-17 09:39 47.47066 8.53939 1404 ft 87 kts 155°
2026-02-17 09:39 47.46344 8.54436 1400 ft 139 kts 155°
2026-02-17 09:40 47.45391 8.55115 1666 ft 158 kts 156°
2026-02-17 09:40 47.44401 8.55866 2232 ft 163 kts 152°
2026-02-17 09:40 47.43668 8.57157 2786 ft 176 kts 101°
2026-02-17 09:40 47.43777 8.59054 3065 ft 196 kts 64°
2026-02-17 09:41 47.44665 8.60411 3594 ft 178 kts
2026-02-17 09:41 47.45761 8.60127 4012 ft 158 kts 309°
2026-02-17 09:41 47.46169 8.58639 4398 ft 171 kts 278°
2026-02-17 09:41 47.46334 8.56769 4757 ft 195 kts 277°
2026-02-17 09:42 47.46252 8.54757 5750 ft 193 kts 255°
2026-02-17 09:42 47.45603 8.53023 6801 ft 199 kts 239°
2026-02-17 09:42 47.44699 8.51384 7472 ft 211 kts 238°
2026-02-17 09:43 47.43034 8.47477 8555 ft 244 kts 250°
2026-02-17 09:43 47.42310 8.45112 9167 ft 258 kts 251°
2026-02-17 09:43 47.41567 8.42676 10065 ft 263 kts 251°
2026-02-17 09:43 47.40785 8.40174 10559 ft 282 kts 250°
2026-02-17 09:44 47.39915 8.37443 10882 ft 305 kts 249°
2026-02-17 09:44 47.38979 8.34566 11493 ft 315 kts 249°
2026-02-17 09:44 47.37727 8.31863 12353 ft 328 kts 230°
2026-02-17 09:44 47.35787 8.29960 13161 ft 345 kts 208°
2026-02-17 09:45 47.34237 8.29309 13670 ft 357 kts 194°
2026-02-17 09:45 47.30878 8.29712 14553 ft 378 kts 165°
2026-02-17 09:45 47.28521 8.31529 15211 ft 390 kts 144°
2026-02-17 09:45 47.27180 8.33394 15599 ft 396 kts 129°
2026-02-17 09:46 47.25783 8.36828 16271 ft 398 kts 109°
2026-02-17 09:46 47.24991 8.40719 16943 ft 401 kts 105°
2026-02-17 09:46 47.23757 8.44436 17623 ft 409 kts 124°
2026-02-17 09:47 47.19346 8.49748 18771 ft 418 kts 156°
2026-02-17 09:47 47.16614 8.51246 19283 ft 420 kts 169°
2026-02-17 09:47 47.13736 8.52012 19826 ft 421 kts 179°
2026-02-17 09:47 47.10806 8.52326 20373 ft 425 kts 181°
2026-02-17 09:48 47.07830 8.52681 20919 ft 431 kts 180°
2026-02-17 09:48 47.04819 8.53085 21377 ft 440 kts 180°
2026-02-17 09:48 47.01766 8.53518 21910 ft 445 kts 180°
2026-02-17 09:48 46.98667 8.53969 22400 ft 451 kts 179°
2026-02-17 09:49 46.95525 8.54435 22933 ft 455 kts 180°
2026-02-17 09:49 46.92355 8.54893 23481 ft 461 kts 180°
2026-02-17 09:49 46.89154 8.55353 23836 ft 466 kts 180°
2026-02-17 09:49 46.85894 8.55820 24234 ft 473 kts 180°
2026-02-17 09:50 46.82588 8.56296 24392 ft 482 kts 181°
2026-02-17 09:50 46.79240 8.56781 24805 ft 486 kts 181°
2026-02-17 09:50 46.75837 8.57263 25089 ft 496 kts 181°
2026-02-17 09:51 46.68896 8.58240 25766 ft 505 kts 180°
2026-02-17 09:51 46.65420 8.58737 26006 ft 510 kts 181°
2026-02-17 09:51 46.61840 8.59219 26167 ft 521 kts 181°
2026-02-17 09:51 46.58204 8.59740 26593 ft 526 kts 181°
2026-02-17 09:52 46.54541 8.60271 26930 ft 532 kts 181°
2026-02-17 09:52 46.50848 8.60806 27296 ft 536 kts 182°
2026-02-17 09:52 46.47112 8.61345 27566 ft 542 kts 182°
2026-02-17 09:52 46.43345 8.61889 27852 ft 547 kts 182°
2026-02-17 09:53 46.39544 8.62429 28158 ft 552 kts 182°
2026-02-17 09:53 46.31830 8.63521 28605 ft 561 kts 182°
2026-02-17 09:53 46.27910 8.64076 28933 ft 564 kts 183°
2026-02-17 09:54 46.23982 8.64621 29170 ft 569 kts 182°
2026-02-17 09:54 46.16068 8.65711 29720 ft 576 kts 183°
2026-02-17 09:55 46.08016 8.67534 30094 ft 599 kts 168°
2026-02-17 09:55 46.04010 8.69292 30268 ft 602 kts 167°
2026-02-17 09:55 46.00010 8.71075 30550 ft 602 kts 167°
2026-02-17 09:55 45.96006 8.72855 30916 ft 603 kts 167°
2026-02-17 09:56 45.92019 8.74619 31569 ft 595 kts 167°
2026-02-17 09:56 45.88079 8.76356 32132 ft 590 kts 167°
2026-02-17 09:56 45.84171 8.78069 32675 ft 586 kts 167°
2026-02-17 09:56 45.80255 8.79778 32931 ft 586 kts 167°
2026-02-17 09:57 45.76349 8.81478 33270 ft 586 kts 167°
2026-02-17 09:57 45.72458 8.83172 33717 ft 583 kts 167°
2026-02-17 09:57 45.68586 8.84856 34116 ft 580 kts 167°
2026-02-17 09:57 45.64726 8.86534 34465 ft 578 kts 167°
2026-02-17 09:58 45.60927 8.88184 34745 ft 576 kts 167°
2026-02-17 09:58 45.57089 8.89848 35060 ft 573 kts 167°
2026-02-17 09:58 45.53269 8.91501 35362 ft 572 kts 167°
2026-02-17 09:59 45.45733 8.94756 35794 ft 569 kts 167°
2026-02-17 09:59 45.38188 8.98005 35828 ft 563 kts 167°
2026-02-17 10:00 45.30675 9.01228 35830 ft 565 kts 167°
2026-02-17 10:00 45.23144 9.04453 35735 ft 565 kts 167°
2026-02-17 10:01 45.15593 9.07679 35687 ft 568 kts 167°
2026-02-17 10:01 45.08023 9.10905 35660 ft 566 kts 167°
2026-02-17 10:02 45.00484 9.14109 35626 ft 565 kts 168°
2026-02-17 10:02 44.96718 9.15706 35843 ft 565 kts 168°
2026-02-17 10:02 44.93001 9.17279 35835 ft 565 kts 168°
2026-02-17 10:03 44.81693 9.22052 35804 ft 565 kts 167°
2026-02-17 10:03 44.74166 9.25220 35835 ft 564 kts 168°
2026-02-17 10:04 44.66639 9.28378 35818 ft 563 kts 167°
2026-02-17 10:04 44.59127 9.31527 35821 ft 564 kts 168°
2026-02-17 10:05 44.51582 9.34675 35821 ft 566 kts 168°
2026-02-17 10:05 44.44034 9.37813 35819 ft 565 kts 168°
2026-02-17 10:06 44.36488 9.40944 35804 ft 565 kts 168°
2026-02-17 10:07 44.25219 9.45609 35814 ft 564 kts 168°
2026-02-17 10:07 44.17663 9.48726 35805 ft 565 kts 168°
2026-02-17 10:08 44.10115 9.51831 35811 ft 565 kts 168°
2026-02-17 10:08 44.02570 9.54926 35813 ft 565 kts 168°
2026-02-17 10:09 43.95021 9.58018 35808 ft 564 kts 169°
2026-02-17 10:09 43.87488 9.61091 35815 ft 565 kts 169°
2026-02-17 10:10 43.79940 9.64163 35809 ft 565 kts 169°
2026-02-17 10:10 43.72438 9.67209 35818 ft 566 kts 169°
2026-02-17 10:11 43.61088 9.71804 35820 ft 567 kts 169°
2026-02-17 10:11 43.53496 9.74869 35812 ft 568 kts 169°
2026-02-17 10:12 43.45908 9.77919 35821 ft 569 kts 169°
2026-02-17 10:12 43.38286 9.80973 35824 ft 570 kts 170°
2026-02-17 10:13 43.30701 9.84007 35864 ft 572 kts 169°
2026-02-17 10:13 43.23026 9.87071 35840 ft 574 kts 169°
2026-02-17 10:14 43.15463 9.90824 35836 ft 581 kts 158°
2026-02-17 10:15 43.04428 9.97872 35846 ft 585 kts 158°
2026-02-17 10:15 42.97117 10.02521 35827 ft 581 kts 158°
2026-02-17 10:16 42.89769 10.07171 35851 ft 582 kts 158°
2026-02-17 10:16 42.82420 10.11805 35846 ft 582 kts 158°
2026-02-17 10:17 42.75076 10.16423 35843 ft 580 kts 158°
2026-02-17 10:17 42.67781 10.20998 35880 ft 580 kts 158°
2026-02-17 10:18 42.60431 10.25592 35853 ft 581 kts 158°
2026-02-17 10:18 42.53078 10.30180 35847 ft 580 kts 158°
2026-02-17 10:19 42.42080 10.37018 35840 ft 580 kts 158°
2026-02-17 10:19 42.34752 10.41560 35843 ft 579 kts 159°
2026-02-17 10:20 42.27413 10.46097 35838 ft 579 kts 159°
2026-02-17 10:20 42.20082 10.50617 35840 ft 579 kts 159°
2026-02-17 10:21 42.12789 10.55102 35840 ft 579 kts 159°
2026-02-17 10:21 42.05462 10.59598 35847 ft 579 kts 159°
2026-02-17 10:22 41.98125 10.64086 35853 ft 578 kts 159°
2026-02-17 10:23 41.71710 10.80155 35833 ft 576 kts 159°
2026-02-17 10:23 41.64411 10.84572 35821 ft 575 kts 160°
2026-02-17 10:24 41.57163 10.88944 35816 ft 575 kts 160°
2026-02-17 10:24 41.49870 10.93331 35821 ft 575 kts 160°
2026-02-17 10:25 41.42576 10.97712 35821 ft 574 kts 160°
2026-02-17 10:25 41.36508 11.01347 35831 ft 575 kts 160°
2026-02-17 10:26 41.22584 11.09660 35808 ft 575 kts 161°
2026-02-17 10:26 41.15285 11.14002 35839 ft 575 kts 161°
2026-02-17 10:27 41.04314 11.20507 35845 ft 576 kts 161°
2026-02-17 10:27 40.96996 11.24838 35843 ft 575 kts 161°
2026-02-17 10:28 40.89689 11.29147 35851 ft 575 kts 161°
2026-02-17 10:28 40.82421 11.33421 35843 ft 573 kts 161°
2026-02-17 10:29 40.75140 11.37698 35835 ft 571 kts 161°
2026-02-17 10:29 40.67884 11.41946 35843 ft 571 kts 162°
2026-02-17 10:30 40.60619 11.46188 35843 ft 571 kts 162°
2026-02-17 10:31 40.49730 11.52531 35852 ft 570 kts 162°
2026-02-17 10:31 40.42470 11.56744 35852 ft 570 kts 162°
2026-02-17 10:32 40.35261 11.60920 35847 ft 570 kts 162°